Dover AFB, DE

1:36 AM EST on February 28, 2017 (GMT -0500)
Dover Air Force Base

Weather History for KDOV - March, 2014

Change the Weather History Date:

Sunday, March 9, 2014

  Actual Average Record
Temperature  
Mean Temperature 42 °F -  
Max Temperature 48 °F 54 °F 78 °F (2016)
Min Temperature 34 °F 32 °F 16 °F (1960)
Degree Days  
Heating Degree Days 24    
Moisture  
Dew Point 29 °F    
Average Humidity 61    
Maximum Humidity 100    
Minimum Humidity 32    
Precipitation  
Precipitation 0.00 in - - ()
Sea Level Pressure  
Sea Level Pressure 30.00 in    
Wind  
Wind Speed 10 mph (NW)    
Max Wind Speed 20 mph    
Max Gust Speed 28 mph    
Visibility 10 miles    
Events Rain    
Averages and records for this station are not official NWS values.
T = Trace of Precipitation, MM = Missing Value Source: NWS Daily Summary

Daily Weather History Graph

Daily Weather History Graph

Search for Another Location

Airport or City:

Trip Planner

Search our weather history database for the weather conditions in past years. The results will help you decide how hot, cold, wet, or windy it might be!

Date:

Astronomy

Mar. 09, 2014 Rise Set
Actual Time 7:22 AM EDT 7:02 PM EDT
Civil Twilight 6:55 AM EDT 7:29 PM EDT
Nautical Twilight 6:24 AM EDT 8:00 PM EDT
Astronomical Twilight 5:53 AM EDT 8:31 PM EDT
Moon 12:55 PM EDT (3/9) 3:44 AM EDT (3/9)
Length of Visible Light 12h 33m
Length of Day
11h 40m
First Quarter, 61% of the Moon is Illuminated
Mar 9
First Quarter
Mar 16
Full
Mar 23
Last Quarter
Mar 30
New
Apr 7
First Quarter

Hourly Weather History & Observations

Time (EDT) Temp. Windchill Dew Point Humidity Pressure Visibility Wind Dir Wind Speed Gust Speed Precip Events Conditions
12:58 AM 45.1 °F 40.8 °F 40.5 °F 84% 29.91 in 10.0 mi North 8.1 mph - N/A   Partly Cloudy
1:58 AM 45.0 °F 40.1 °F 38.8 °F 79% 29.90 in 10.0 mi North 9.2 mph - N/A   Clear
3:58 AM 45.0 °F 40.1 °F 38.8 °F 79% 29.92 in 10.0 mi NNW 9.2 mph - N/A   Partly Cloudy
4:58 AM 43.0 °F 38.8 °F 39.0 °F 86% 29.93 in 10.0 mi NW 6.9 mph - N/A   Mostly Cloudy
5:21 AM 44.6 °F 38.8 °F 37.4 °F 76% 29.92 in 10.0 mi NNW 11.5 mph - N/A   Partly Cloudy
5:58 AM 42.8 °F 37.5 °F 40.3 °F 91% 29.94 in 10.0 mi NW 9.2 mph - 0.00 in Rain Light Rain
6:26 AM 41.0 °F 35.8 °F 41.0 °F 100% 29.94 in 10.0 mi NW 8.1 mph - N/A   Scattered Clouds
6:58 AM 41.2 °F 35.0 °F 41.0 °F 99% 29.97 in 10.0 mi NW 10.4 mph - 0.00 in   Overcast
7:58 AM 39.6 °F 33.0 °F 37.9 °F 94% 30.01 in 10.0 mi NW 10.4 mph - N/A   Scattered Clouds
8:58 AM 41.0 °F 33.9 °F 36.5 °F 84% 30.04 in 10.0 mi NW 12.7 mph - N/A   Scattered Clouds
9:58 AM 43.3 °F 36.1 °F 34.7 °F 72% 30.05 in 10.0 mi NW 15.0 mph - N/A   Partly Cloudy
10:58 AM 44.4 °F 37.5 °F 31.3 °F 60% 30.05 in 10.0 mi WNW 15.0 mph - N/A   Partly Cloudy
11:58 AM 45.7 °F 39.1 °F 28.9 °F 52% 30.07 in 10.0 mi WNW 15.0 mph 25.3 mph N/A   Scattered Clouds
12:01 PM 44.6 °F 38.1 °F 28.4 °F 53% 30.05 in 10.0 mi West 13.8 mph 25.3 mph N/A   Partly Cloudy
12:58 PM 47.3 °F - 26.6 °F 45% 30.06 in 10.0 mi NW 15.0 mph 25.3 mph N/A   Scattered Clouds
1:58 PM 47.5 °F - 23.9 °F 40% 30.05 in 10.0 mi WNW 15.0 mph 21.9 mph N/A   Clear
1:59 PM 46.4 °F 40.4 °F 24.8 °F 43% 30.04 in 10.0 mi West 13.8 mph 21.9 mph N/A   Clear
2:11 PM 48.2 °F - 23.0 °F 37% 30.03 in 10.0 mi NW 19.6 mph 27.6 mph N/A   Clear
2:58 PM 47.1 °F - 19.9 °F 34% 30.03 in 10.0 mi NW 18.4 mph 27.6 mph N/A   Clear
3:58 PM 46.6 °F - 18.9 °F 33% 30.02 in 10.0 mi WNW 17.3 mph 23.0 mph N/A   Clear
4:58 PM 46.2 °F 39.5 °F 17.6 °F 32% 30.01 in 10.0 mi NW 16.1 mph 20.7 mph N/A   Clear
5:58 PM 44.8 °F 39.0 °F 19.0 °F 36% 30.01 in 10.0 mi NW 11.5 mph - N/A   Clear
6:58 PM 41.7 °F 36.1 °F 18.7 °F 40% 30.02 in 10.0 mi NW 9.2 mph - N/A   Clear
7:58 PM 38.3 °F 35.9 °F 18.7 °F 45% 30.03 in 10.0 mi NW 3.5 mph - N/A   Clear
8:58 PM 38.5 °F 35.0 °F 18.5 °F 45% 30.05 in 10.0 mi NW 4.6 mph - N/A   Clear
9:58 PM 36.1 °F 30.6 °F 20.7 °F 53% 30.04 in 10.0 mi NNW 6.9 mph - N/A   Clear
10:58 PM 35.8 °F 31.9 °F 20.3 °F 53% 30.01 in 10.0 mi North 4.6 mph - N/A   Clear
11:58 PM 35.6 °F 32.8 °F 20.8 °F 55% 30.01 in 10.0 mi NNW 3.5 mph - N/A   Scattered Clouds
12:58 AM 34.3 °F 29.2 °F 24.3 °F 67% 30.01 in 10.0 mi SSW 5.8 mph - N/A   Clear